Custer, SD

6:16 AM MST on November 21, 2019 (GMT -0700)
Custer County

Weather History for KCUT - October, 2019

Change the Weather History Date:

Monday, October 21, 2019

  Actual Average Record
Temperature  
Mean Temperature 34 °F 41 °F  
Max Temperature 39 °F 53 °F 76 °F (1950)
Min Temperature 28 °F 30 °F 9 °F (1976)
Degree Days  
Heating Degree Days 31 24  
Month to date heating degree days 534 439  
Since 1 July heating degree days 919 925  
Cooling Degree Days 0 0  
Month to date cooling degree days 0 0  
Year to date cooling degree days 140 177  
Moisture  
Dew Point 20 °F    
Average Humidity 61    
Maximum Humidity 73    
Minimum Humidity 44    
Precipitation  
Precipitation 0.00 in 0.04 in 1.41 in (1931)
Month to date precipitation 0.66 1.18  
Year to date precipitation 25.68 17.67  
Sea Level Pressure  
Sea Level Pressure 29.94 in    
Wind  
Wind Speed 10 mph ()    
Max Wind Speed 23 mph    
Max Gust Speed 39 mph    
T = Trace of Precipitation, MM = Missing Value Source: Averaged Metar Reports

Daily Weather History Graph

Daily Weather History Graph

Search for Another Location

Airport or City:

Astronomy

Oct. 21, 2019 Rise Set
Actual Time 7:16 AM MDT 6:01 PM MDT
Civil Twilight 6:46 AM MDT 6:30 PM MDT
Nautical Twilight 6:13 AM MDT 7:04 PM MDT
Astronomical Twilight 5:40 AM MDT 7:37 PM MDT
Moon No Moon Rise 2:42 PM MDT
Length of Visible Light 11h 43m
Length of Day
10h 45m
Waning Gibbous, 47% of the Moon is Illuminated
Oct 21
Waning Gibbous
Oct 27
New
Nov 4
First Quarter
Nov 12
Full
Nov 19
Last Quarter

Hourly Weather History & Observations

Time (MDT) Temp. Windchill Dew Point Humidity Pressure Visibility Wind Dir Wind Speed Gust Speed Precip Events Conditions
12:53 AM 32.0 °F 23.0 °F 24.1 °F 73% 29.80 in - NW 11.5 mph 19.6 mph N/A   Overcast
1:19 AM 32.0 °F 24.2 °F 24.1 °F 73% 29.75 in - NNW 9.2 mph 25.3 mph N/A   Partly Cloudy
1:53 AM 32.0 °F 23.6 °F 23.0 °F 69% 29.80 in - NNW 10.4 mph 27.6 mph N/A   Partly Cloudy
2:53 AM 30.9 °F 21.7 °F 21.9 °F 69% 29.82 in - NNW 11.5 mph 33.4 mph N/A   Clear
3:53 AM 30.0 °F 18.7 °F 21.0 °F 69% 29.83 in - NNW 16.1 mph 35.7 mph N/A   Clear
4:53 AM 28.9 °F 17.7 °F 19.9 °F 69% 29.85 in - North 15.0 mph 31.1 mph N/A   Clear
5:53 AM 28.0 °F 17.0 °F 17.1 °F 63% 29.86 in - North 13.8 mph 31.1 mph N/A   Clear
6:53 AM 28.0 °F 17.0 °F 18.0 °F 66% 29.88 in - NNW 13.8 mph 25.3 mph N/A   Clear
7:53 AM 28.0 °F 16.5 °F 17.1 °F 63% 29.88 in - North 15.0 mph 29.9 mph N/A   Clear
8:53 AM 30.0 °F 19.1 °F 16.0 °F 56% 29.92 in - North 15.0 mph 31.1 mph N/A   Clear
9:53 AM 34.0 °F 26.0 °F 18.0 °F 52% 29.92 in - North 10.4 mph 23.0 mph N/A   Clear
10:53 AM 34.0 °F 25.0 °F 16.0 °F 48% 29.94 in - NNW 12.7 mph 31.1 mph N/A   Clear
11:53 AM 36.0 °F 27.1 °F 17.1 °F 46% 29.94 in - NNW 13.8 mph 25.3 mph N/A   Clear
12:53 PM 39.0 °F 32.3 °F 19.0 °F 45% 29.92 in - NNW 10.4 mph 25.3 mph N/A   Clear
1:53 PM 37.9 °F 31.5 °F 19.0 °F 47% 29.94 in - NNW 9.2 mph 26.5 mph N/A   Scattered Clouds
2:53 PM 39.0 °F 32.3 °F 21.0 °F 49% 29.95 in - WNW 10.4 mph 20.7 mph N/A   Mostly Cloudy
3:53 PM 37.9 °F 30.9 °F 21.9 °F 53% 29.99 in - WNW 10.4 mph 24.2 mph N/A   Mostly Cloudy
4:53 PM 37.0 °F 31.0 °F 21.9 °F 54% 30.00 in - NW 8.1 mph 18.4 mph N/A   Overcast
5:53 PM 34.0 °F 26.0 °F 24.1 °F 67% 30.04 in - WNW 10.4 mph 19.6 mph N/A   Partly Cloudy
6:53 PM 33.1 °F 23.9 °F 23.0 °F 66% 30.05 in - WNW 12.7 mph 21.9 mph N/A   Clear
7:53 PM 33.1 °F 26.9 °F 23.0 °F 66% 30.06 in - NW 6.9 mph - N/A   Clear
8:53 PM 30.9 °F 25.2 °F 21.9 °F 69% 30.06 in - NW 5.8 mph - N/A   Clear
9:53 PM 28.9 °F 22.8 °F 19.9 °F 69% 30.07 in - West 5.8 mph - N/A   Clear
10:53 PM 30.0 °F 25.2 °F 19.9 °F 66% 30.07 in - West 4.6 mph - N/A   Clear
11:53 PM 30.9 °F 24.3 °F 21.0 °F 67% 30.05 in - WNW 6.9 mph - N/A   Clear